• In Uzbekistan
  • List of Countries
  • For 7 days
  • Water Temperature
  • Satellite Maps
  • Weather Map
  • Weather Widgets
  • user-avatar
    Login

    Hourly Weather Hiddenhausen

    Today, 19 October, Thursday

    Time Temperature Precipitation Wind Pressure Humidity
    00:00 +12°C° 0 mm 2 mps 752 mmHg 88%
    01:00 +12°C° 0 mm 2 mps 752 mmHg 89%
    02:00 +12°C° 0 mm 1 mps 751 mmHg 89%
    03:00 +12°C° 0 mm 1 mps 751 mmHg 90%
    04:00 +12°C° 0 mm 1 mps 751 mmHg 91%
    05:00 +12°C° 0 mm 1 mps 751 mmHg 91%
    06:00 +12°C° 0 mm 1 mps 751 mmHg 91%
    07:00 +11°C° 0 mm 1 mps 751 mmHg 92%
    08:00 +13°C° 0 mm 2 mps 751 mmHg 86%
    09:00 +15°C° 0 mm 2 mps 751 mmHg 81%
    10:00 +16°C° 0 mm 2 mps 751 mmHg 75%
    11:00 +18°C° 0 mm 2 mps 751 mmHg 71%
    12:00 +19°C° 0 mm 2 mps 751 mmHg 67%
    13:00 +20°C° 0 mm 2 mps 751 mmHg 63%
    14:00 +20°C° 0 mm 2 mps 750 mmHg 65%
    15:00 +20°C° 0 mm 2 mps 750 mmHg 68%
    16:00 +19°C° 0 mm 2 mps 750 mmHg 70%
    17:00 +18°C° 0 mm 2 mps 750 mmHg 75%
    18:00 +16°C° 0 mm 2 mps 750 mmHg 80%
    19:00 +14°C° 0 mm 3 mps 750 mmHg 84%
    20:00 +14°C° 0 mm 3 mps 750 mmHg 84%
    21:00 +14°C° 0 mm 3 mps 750 mmHg 84%
    22:00 +13°C° 0 mm 3 mps 751 mmHg 83%
    23:00 +13°C° 0 mm 3 mps 751 mmHg 82%

    Tomorrow, 20 October, Friday

    Time Temperature Precipitation Wind Pressure Humidity
    00:00 +13°C° 0 mm 3 mps 751 mmHg 80%
    01:00 +13°C° 0 mm 3 mps 751 mmHg 79%
    02:00 +14°C° 0 mm 3 mps 751 mmHg 75%
    03:00 +14°C° 0 mm 3 mps 750 mmHg 71%
    04:00 +14°C° 0 mm 3 mps 750 mmHg 67%
    05:00 +14°C° 0 mm 3 mps 750 mmHg 67%
    06:00 +14°C° 0 mm 3 mps 750 mmHg 66%
    07:00 +14°C° 0 mm 4 mps 750 mmHg 66%
    08:00 +14°C° 0.8 mm 4 mps 751 mmHg 72%
    09:00 +14°C° 0.8 mm 4 mps 751 mmHg 79%
    10:00 +14°C° 0.8 mm 5 mps 751 mmHg 85%
    11:00 +14°C° 0.8 mm 5 mps 751 mmHg 85%
    12:00 +14°C° 0.8 mm 5 mps 752 mmHg 84%
    13:00 +15°C° 0.8 mm 5 mps 752 mmHg 84%
    14:00 +15°C° 0.2 mm 4 mps 752 mmHg 81%
    15:00 +15°C° 0.2 mm 4 mps 752 mmHg 78%
    16:00 +16°C° 0.2 mm 3 mps 752 mmHg 75%
    17:00 +13°C° 0 mm 3 mps 752 mmHg 78%
    18:00 +12°C° 0 mm 3 mps 753 mmHg 80%
    19:00 +12°C° 0 mm 2 mps 753 mmHg 83%
    20:00 +10°C° 0 mm 2 mps 753 mmHg 83%
    21:00 +10°C° 0 mm 2 mps 753 mmHg 84%
    22:00 +9°C° 0 mm 2 mps 754 mmHg 85%
    23:00 +9°C° 0 mm 2 mps 754 mmHg 85%

    Day after tomorrow, 21 October, Saturday

    Time Temperature Precipitation Wind Pressure Humidity
    00:00 +9°C° 0 mm 2 mps 754 mmHg 85%
    01:00 +9°C° 0 mm 2 mps 753 mmHg 86%
    02:00 +9°C° 0 mm 3 mps 753 mmHg 84%
    03:00 +10°C° 0 mm 3 mps 753 mmHg 82%
    04:00 +10°C° 0 mm 3 mps 752 mmHg 81%
    05:00 +10°C° 0 mm 3 mps 752 mmHg 83%
    06:00 +10°C° 0 mm 3 mps 752 mmHg 86%
    07:00 +10°C° 0 mm 3 mps 751 mmHg 89%
    08:00 +12°C° 0.1 mm 4 mps 751 mmHg 88%
    09:00 +13°C° 0.1 mm 4 mps 751 mmHg 86%
    10:00 +14°C° 0.1 mm 5 mps 751 mmHg 84%
    11:00 +15°C° 0.1 mm 5 mps 751 mmHg 85%
    12:00 +15°C° 0.1 mm 5 mps 751 mmHg 85%
    13:00 +15°C° 0.1 mm 5 mps 750 mmHg 85%
    14:00 +15°C° 0.1 mm 5 mps 750 mmHg 85%
    15:00 +15°C° 0.1 mm 4 mps 750 mmHg 84%
    16:00 +15°C° 0.1 mm 4 mps 750 mmHg 83%
    17:00 +14°C° 0.1 mm 4 mps 751 mmHg 83%
    18:00 +13°C° 0.1 mm 4 mps 751 mmHg 84%
    19:00 +12°C° 0.1 mm 4 mps 751 mmHg 84%
    20:00 +10°C° 0 mm 5 mps 751 mmHg 82%
    21:00 +10°C° 0 mm 5 mps 751 mmHg 81%
    22:00 +9°C° 0 mm 5 mps 751 mmHg 79%
    23:00 +9°C° 0 mm 5 mps 751 mmHg 79%

    22 October, Sunday

    Time Temperature Precipitation Wind Pressure Humidity
    00:00 +9°C° 0 mm 5 mps 751 mmHg 78%
    01:00 +9°C° 0 mm 5 mps 751 mmHg 78%
    02:00 +8°C° 0 mm 5 mps 751 mmHg 78%
    03:00 +8°C° 0 mm 5 mps 751 mmHg 79%
    04:00 +8°C° 0 mm 5 mps 751 mmHg 79%
    05:00 +8°C° 0 mm 6 mps 751 mmHg 79%
    06:00 +7°C° 0 mm 6 mps 751 mmHg 79%
    07:00 +7°C° 0 mm 6 mps 751 mmHg 79%
    08:00 +8°C° 0 mm 6 mps 751 mmHg 77%
    09:00 +9°C° 0 mm 7 mps 751 mmHg 75%
    10:00 +9°C° 0 mm 7 mps 751 mmHg 72%
    11:00 +10°C° 0.1 mm 7 mps 751 mmHg 71%
    12:00 +10°C° 0.1 mm 7 mps 751 mmHg 70%
    13:00 +10°C° 0.1 mm 7 mps 752 mmHg 69%
    14:00 +10°C° 0.1 mm 7 mps 752 mmHg 71%
    15:00 +10°C° 0.1 mm 6 mps 752 mmHg 73%
    16:00 +9°C° 0.1 mm 6 mps 752 mmHg 75%
    17:00 +9°C° 0.1 mm 6 mps 752 mmHg 77%
    18:00 +8°C° 0.1 mm 6 mps 752 mmHg 79%
    19:00 +7°C° 0.1 mm 5 mps 752 mmHg 81%
    20:00 +8°C° 0.1 mm 6 mps 752 mmHg 82%
    21:00 +8°C° 0.1 mm 6 mps 752 mmHg 84%
    22:00 +8°C° 0.1 mm 6 mps 753 mmHg 86%
    23:00 +8°C° 0.2 mm 6 mps 753 mmHg 87%

    23 October, Monday

    Time Temperature Precipitation Wind Pressure Humidity
    00:00 +8°C° 0.2 mm 6 mps 753 mmHg 88%
    01:00 +8°C° 0.2 mm 6 mps 753 mmHg 90%
    02:00 +8°C° 0.1 mm 5 mps 753 mmHg 90%
    03:00 +8°C° 0.1 mm 5 mps 753 mmHg 91%
    04:00 +8°C° 0.1 mm 5 mps 754 mmHg 91%
    05:00 +8°C° 0.1 mm 5 mps 754 mmHg 91%
    06:00 +8°C° 0.1 mm 5 mps 755 mmHg 92%
    07:00 +8°C° 0.1 mm 5 mps 755 mmHg 92%
    08:00 +9°C° 0 mm 5 mps 756 mmHg 89%
    09:00 +9°C° 0 mm 5 mps 756 mmHg 86%
    10:00 +10°C° 0 mm 5 mps 757 mmHg 83%
    11:00 +12°C° 0 mm 5 mps 757 mmHg 81%
    12:00 +12°C° 0 mm 5 mps 757 mmHg 80%
    13:00 +13°C° 0 mm 5 mps 757 mmHg 78%
    14:00 +12°C° 0.1 mm 5 mps 757 mmHg 81%
    15:00 +12°C° 0.1 mm 5 mps 757 mmHg 84%
    16:00 +12°C° 0.1 mm 4 mps 757 mmHg 86%
    17:00 +11°C° 0.2 mm 4 mps 757 mmHg 88%
    18:00 +10°C° 0.2 mm 5 mps 758 mmHg 90%
    19:00 +10°C° 0.2 mm 5 mps 758 mmHg 92%
    20:00 +10°C° 0.1 mm 5 mps 758 mmHg 91%
    21:00 +10°C° 0.1 mm 5 mps 758 mmHg 91%
    22:00 +10°C° 0.1 mm 5 mps 758 mmHg 90%
    23:00 +10°C° 0.2 mm 5 mps 758 mmHg 90%

    24 October, Tuesday

    Time Temperature Precipitation Wind Pressure Humidity
    00:00 +10°C° 0.2 mm 5 mps 758 mmHg 91%
    01:00 +10°C° 0.2 mm 5 mps 758 mmHg 91%
    02:00 +10°C° 0.1 mm 5 mps 758 mmHg 91%
    03:00 +10°C° 0.1 mm 5 mps 758 mmHg 91%
    04:00 +12°C° 0.1 mm 5 mps 757 mmHg 91%
    05:00 +12°C° 0.2 mm 5 mps 758 mmHg 92%
    06:00 +12°C° 0.2 mm 5 mps 758 mmHg 92%
    07:00 +12°C° 0.2 mm 5 mps 758 mmHg 92%
    08:00 +12°C° 0.3 mm 5 mps 758 mmHg 92%
    09:00 +12°C° 0.3 mm 5 mps 758 mmHg 91%
    10:00 +12°C° 0.3 mm 5 mps 758 mmHg 91%
    11:00 +13°C° 0 mm 5 mps 758 mmHg 88%
    12:00 +14°C° 0 mm 5 mps 758 mmHg 86%
    13:00 +14°C° 0 mm 5 mps 758 mmHg 83%
    14:00 +14°C° 0 mm 5 mps 758 mmHg 82%
    15:00 +15°C° 0 mm 4 mps 758 mmHg 81%
    16:00 +15°C° 0 mm 4 mps 758 mmHg 80%
    17:00 +14°C° 0 mm 4 mps 758 mmHg 82%
    18:00 +13°C° 0 mm 3 mps 758 mmHg 85%
    19:00 +12°C° 0 mm 3 mps 758 mmHg 87%
    20:00 +12°C° 0 mm 3 mps 758 mmHg 87%
    21:00 +12°C° 0 mm 3 mps 758 mmHg 87%
    22:00 +11°C° 0 mm 3 mps 758 mmHg 87%
    23:00 +11°C° 0 mm 3 mps 758 mmHg 88%
    Show more